User: anonymous   Login
Location: Unspecified
(0.0000°N, 0.0000°E)
Time: 01:59:31
(UTC+00:00)
Language:

USA 274 DEB - Orbit

View from above orbital plane
View from above orbital plane
View from above satellite
View from above satellite

Ground track
Ground track

The orbit data is extracted from the following two-line orbital elements,

1 42065U 17011B   23066.76701012 0.00000000  00000-0  00000-0 0    01
2 42065  63.4423 320.5038 0061385   4.5330 355.4669 13.40859630    07
Epoch (UTC): 07 March 2023 18:24:29
Eccentricity: 0.0061385
inclination: 63.4423°
perigee height: 1060 km
apogee height: 1152 km
right ascension of ascending node: 320.5038°
argument of perigee: 4.5330°
revolutions per day: 13.40859630
mean anomaly at epoch: 355.4669°
orbit number at epoch: 0

The dashed part of the orbit path shows where the satellite is in the earth's shadow,  

DLR